Location: Newark
(51.8900°N, 2.0780°W)
Time: 10:09:06
(UTC+00:00)

Envisat - Pass Details

Date: 01 December 2019
Orbit: 764 x 766 km, 98.1° (Epoch: 13 December)

Event Time Altitude Azimuth Distance (km) Brightness Sun altitude
Rises 06:51:14 0° 16° (NNE) 3,245 6.2 -9.1°
Reaches altitude 10° 06:53:36 10° 21° (NNE) 2,314 5.5 -8.7°
Maximum altitude 06:58:38 60° 101° (E) 877 3.7 -8.0°
Drops below altitude 10° 07:03:39 10° 181° (S) 2,297 5.8 -7.3°
Sets 07:05:58 0° 185° (S) 3,219 6.5 -7.0°
